Weather Roundup
Issued by NWS

Home | Current Version | Previous Version | Text Only | Print | Product List | Glossary On
Versions: 1 2 3 4 5 6 7 8 9 10 11 12 13 14 15 16 17 18 19 20 21 22 23 24 25 26 27 28 29 30 31 32 33 34 35 36 37 38 39 40 41 42 43 44 45 46 47 48 49 50
000
NZUS93 KARX 251610
HRRWXR

CURRENT HOURLY OBSERVATIONS ACROSS
MUCH OF THE UPPER MISSISSIPPI VALLEY
NATIONAL WEATHER SERVICE LA CROSSE WI
1100 AM CDT WED MAY 25 2016


...SOUTHEAST MINNESOTA...


CITY           SKY/WX    TMP DP  RH WIND       PRES   REMARKS
ROCHESTER      CLOUDY    70  66  87 E10       29.88F
ROCHESTER/MAYO CLOUDY    69  68  98 E7        29.89F
WINONA         PTSUNNY   70  63  78 E7        29.88F
AUSTIN         CLOUDY    70  64  83 NE6       29.86F
ALBERT LEA     DRIZZLE   68  66  94 E7        29.86S
DODGE CENTER   CLOUDY    70  66  88 E8        29.88F FOG
PRESTON        CLOUDY    66  63  88 E5        29.89S
OWATONNA       LGT RAIN  70  64  83 E8        29.87F
FARIBAULT      PTSUNNY   68  64  88 E6        29.87F
$$

...ELSEWHERE IN MINNESOTA...


CITY           SKY/WX    TMP DP  RH WIND       PRES   REMARKS
MINNEAPOLIS    LGT RAIN  69  64  84 E10       29.90F
INTNL FALLS    NOT AVBL
DULUTH         NOT AVBL
RED WING       LGT RAIN  66  64  94 NE7       29.87F
REDWOOD FALLS  CLOUDY    66  62  87 E10       29.80F
MANKATO        PTSUNNY   66  63  88 E9        29.86R
WORTHINGTON    NOT AVBL
FAIRMONT       CLOUDY    70  54  56 SE13      29.83S
$$

...SOUTHWEST WISCONSIN...


CITY           SKY/WX    TMP DP  RH WIND       PRES   REMARKS
LA CROSSE      CLOUDY    72  65  78 SE6       29.90F
PRAIRIE DU CHI CLOUDY    72  62  70 E9        29.88F
BOSCOBEL       PTSUNNY   80  63  55 CALM      29.91F
LONE ROCK      CLOUDY    78  64  61 SE8       29.95F
PLATTEVILLE    MOSUNNY   78  63  58 SE13      29.93F
FORT MC COY    CLOUDY    76  62  62 S7        29.95F
CAMP DOUGLAS   PTSUNNY   79  68  69 SE13      29.95S
MAUSTON-NEW LI CLOUDY    78  62  58 SE9       29.95F
VIROQUA        FAIR      74  62  65 SE8       29.94F
WIS DELLS      PTSUNNY   76  62  60 S6        29.97F
$$

...ELSEWHERE IN WISCONSIN...


CITY           SKY/WX    TMP DP  RH WIND       PRES   REMARKS
MILWAUKEE      CLOUDY    59  52  77 N9        30.02S
MADISON        CLOUDY    77  64  64 SE7       29.96F
GREEN BAY      CLOUDY    62  57  83 NE10      30.04S
EAU CLAIRE     CLOUDY    75  59  57 SE10      29.93S
BLACK RVR FLS  FAIR      78  57  48 SE8       29.94F
MEDFORD        CLOUDY    69  61  76 E8        30.00S
WAUSAU         CLOUDY    65  58  78 E14       30.01S
WIS RAPIDS     PTSUNNY   70  57  63 E9        30.01R
MARSHFIELD     CLOUDY    71  60  68 E15       29.98S
RICE LAKE      CLOUDY    75  58  55 E10       29.96S
$$

...NORTHEAST IOWA...


CITY           SKY/WX    TMP DP  RH WIND       PRES   REMARKS
WATERLOO       CLOUDY    70  63  78 S7        29.88S
DUBUQUE        CLOUDY    74  62  66 SE12      29.93F
DECORAH        CLOUDY    70  63  78 SE9G18    29.88R
MASON CITY     LGT RAIN  67  66  97 S9        29.89R FOG
CHARLES CITY   CLOUDY    68  68 100 S9        29.90R
OELWEIN        CLOUDY    70  68  94 SE16      29.89F
$$

...ELSEWHERE IN IOWA...


CITY           SKY/WX    TMP DP  RH WIND       PRES   REMARKS
DES MOINES     CLOUDY    71  65  81 S10       29.87F
IOWA CITY      CLOUDY    74  66  76 SE12      29.92F
FORT DODGE     CLOUDY    68  61  77 S12       29.86F
MARSHALLTOWN   CLOUDY    67  65  93 S12       29.89S
CEDAR RAPIDS   CLOUDY    73  67  81 SE9G17    29.89F
$$

...NORTHERN ILLINOIS...


CITY           SKY/WX    TMP DP  RH WIND       PRES   REMARKS
CHICAGO-OHARE  CLOUDY    78  65  63 S8        29.98F
CHICAGO-MIDWAY PTSUNNY   80  61  52 S12       29.99F
MOLINE         MOSUNNY   79  63  57 SE15      29.91F
ROCKFORD       CLOUDY    81  65  58 S14       29.98F
PEORIA         SUNNY     79  65  62 S12       29.96F
$$

NOTE: "FAIR" INDICATES FEW OR NO CLOUDS BELOW 12,000 FEET WITH NO
SIGNIFICANT WEATHER AND/OR OBSTRUCTIONS TO VISIBILITY. WIND
SPEEDS ARE IN MILES-PER-HOUR.




USA.gov is the U.S. government's official web portal to all federal, state and local government web resources and services.